Weather History for Malahat, BC

Change the Weather History Date:

Friday, November 30, 2012

  Actual Average Record
Temperature  
Mean Temperature 44 °F -  
Max Temperature 45 °F - - ()
Min Temperature 42 °F - - ()
Degree Days  
Heating Degree Days 22    
Moisture  
Dew Point 43 °F    
Average Humidity 96    
Maximum Humidity 97    
Minimum Humidity 92    
Precipitation  
Precipitation 0.00 in - - ()
Sea Level Pressure  
Sea Level Pressure 29.31 in    
Wind  
Wind Speed - ()    
Max Wind Speed -    
Max Gust Speed -    
T = Trace of Precipitation, MM = Missing Value Source: Averaged Metar Reports

Daily Weather History Graph

Daily Weather History Graph

Search for Another Location

Airport:

Trip Planner

Search our weather history database for the weather conditions in past years. The results will help you decide how hot, cold, wet, or windy it might be!

Date:

Astronomy

Nov. 30, 2012 Rise Set
Actual Time 7:44 AM PST 4:21 PM PST
Civil Twilight 7:08 AM PST 4:57 PM PST
Nautical Twilight 6:29 AM PST 5:36 PM PST
Astronomical Twilight 5:51 AM PST 6:14 PM PST
Moon 6:22 PM PST (11/30) 9:19 AM PST (11/30)
Length of Visible Light 9h 48m
Length of Day
8h 36m
Waning Gibbous, 96% of the Moon is Illuminated
Nov 30
Waning Gibbous
Dec 6
Last Quarter
Dec 13
New
Dec 19
First Quarter
Dec 28
Full

Hourly Weather History & Observations

Time (PST) Temp. Dew Point Humidity Pressure Visibility Wind Dir Wind Speed Gust Speed Precip Events Conditions
12:00 AM 44.1 °F 43.2 °F 97% 29.35 in - North - - N/A   Unknown
1:00 AM 43.9 °F 43.0 °F 97% 29.33 in - North - - N/A   Unknown
2:00 AM 43.5 °F 42.4 °F 96% 29.31 in - North - - N/A   Unknown
3:00 AM 44.1 °F 42.8 °F 95% 29.29 in - North - - N/A   Unknown
4:00 AM 44 °F 43 °F 94% 29.29 in - Calm Calm - -  
4:00 AM 43.9 °F 42.8 °F 96% 29.29 in - North - - N/A   Unknown
5:00 AM 43.9 °F 42.8 °F 96% 29.27 in - North - - N/A   Unknown
6:00 AM 43.9 °F 43.0 °F 97% 29.27 in - North - - N/A   Unknown
7:00 AM 43.9 °F 43.0 °F 97% 29.26 in - North - - N/A   Unknown
8:00 AM 43.7 °F 42.8 °F 97% 29.29 in - North - - N/A   Unknown
9:00 AM 43.2 °F 41.4 °F 93% 29.28 in - North - - N/A   Unknown
10:00 AM 43 °F 42 °F 92% 29.34 in - Calm Calm - -  
10:00 AM 42.6 °F 41.5 °F 96% 29.34 in - North - - N/A   Unknown
11:00 AM 43.0 °F 41.9 °F 96% 29.32 in - North - - N/A   Unknown
12:00 PM 45.0 °F 43.9 °F 96% 29.31 in - North - - N/A   Unknown
1:00 PM 44.6 °F 43.2 °F 95% 29.31 in - North - - N/A   Unknown
2:00 PM 45.5 °F 44.1 °F 95% 29.32 in - North - - N/A   Unknown
3:00 PM 45.0 °F 43.9 °F 96% 29.31 in - North - - N/A   Unknown
4:00 PM 44 °F 43 °F 97% 29.33 in - Calm Calm - -  
4:00 PM 44.4 °F 43.3 °F 96% 29.33 in - North - - N/A   Unknown
5:00 PM 44.6 °F 43.3 °F 95% 29.34 in - North - - N/A   Unknown
6:00 PM 44.4 °F 42.8 °F 94% 29.34 in - North - - N/A   Unknown
7:00 PM 43.2 °F 41.4 °F 93% 29.31 in - North - - N/A   Unknown
8:00 PM 43.3 °F 42.1 °F 95% 29.31 in - North - - N/A   Unknown
9:00 PM 43.7 °F 42.6 °F 96% 29.28 in - North - - N/A   Unknown
10:00 PM 43 °F 42 °F 96% 29.28 in - Calm Calm - -  
10:00 PM 43.3 °F 42.3 °F 96% 29.28 in - North - - N/A   Unknown
11:00 PM 43.5 °F 42.6 °F 97% 29.29 in - North - - N/A   Unknown